When you browse on this site, cookies collect data to enhance your experience and personalize the content and advertising you see.
Visit our Privacy Policy to learn more. By continuing to use the site, you agree to this use of cookies and data.
  • In Romania
  • List of Countries
  • For 7 days
  • Water Temperature
  • Satellite Maps
  • Weather Map
  • Weather Widgets
  • user-avatar
    Login

    Hourly Weather Islamabad

    Today, 20 May, Monday

    Time Temperature Precipitation Wind Pressure Humidity
    00:00 +28°C° 0.1 mm 3 mps 714 mmHg 49%
    01:00 +27°C° 0.1 mm 4 mps 714 mmHg 48%
    02:00 +27°C° 0.1 mm 5 mps 715 mmHg 47%
    03:00 +26°C° 1.2 mm 4 mps 714 mmHg 48%
    04:00 +26°C° 1.2 mm 3 mps 714 mmHg 48%
    05:00 +25°C° 0 mm 3 mps 714 mmHg 51%
    06:00 +26°C° 0 mm 2 mps 714 mmHg 46%
    07:00 +28°C° 0 mm 2 mps 714 mmHg 42%
    08:00 +29°C° 0 mm 2 mps 715 mmHg 37%
    09:00 +31°C° 0 mm 2 mps 715 mmHg 33%
    10:00 +32°C° 0 mm 2 mps 715 mmHg 29%
    11:00 +35°C° 0 mm 2 mps 715 mmHg 26%
    12:00 +35°C° 0 mm 3 mps 715 mmHg 24%
    13:00 +36°C° 0 mm 3 mps 714 mmHg 23%
    14:00 +37°C° 0 mm 3 mps 714 mmHg 21%
    15:00 +37°C° 0 mm 3 mps 714 mmHg 21%
    16:00 +37°C° 0 mm 3 mps 713 mmHg 21%
    17:00 +37°C° 0 mm 3 mps 713 mmHg 20%
    18:00 +35°C° 0 mm 2 mps 713 mmHg 22%
    19:00 +34°C° 0 mm 2 mps 713 mmHg 24%
    20:00 +31°C° 0 mm 1 mps 713 mmHg 27%
    21:00 +31°C° 0 mm 2 mps 713 mmHg 28%
    22:00 +30°C° 0 mm 2 mps 713 mmHg 30%
    23:00 +29°C° 0 mm 3 mps 714 mmHg 32%

    Tomorrow, 21 May, Tuesday

    Time Temperature Precipitation Wind Pressure Humidity
    00:00 +29°C° 0 mm 3 mps 713 mmHg 33%
    01:00 +28°C° 0 mm 3 mps 713 mmHg 35%
    02:00 +28°C° 0 mm 3 mps 713 mmHg 37%
    03:00 +27°C° 0 mm 3 mps 713 mmHg 37%
    04:00 +27°C° 0 mm 3 mps 712 mmHg 38%
    05:00 +26°C° 0 mm 3 mps 712 mmHg 38%
    06:00 +28°C° 0 mm 3 mps 713 mmHg 34%
    07:00 +30°C° 0 mm 2 mps 713 mmHg 31%
    08:00 +32°C° 0 mm 2 mps 714 mmHg 27%
    09:00 +34°C° 0 mm 2 mps 714 mmHg 24%
    10:00 +36°C° 0 mm 2 mps 714 mmHg 20%
    11:00 +37°C° 0 mm 2 mps 714 mmHg 17%
    12:00 +38°C° 0 mm 2 mps 713 mmHg 16%
    13:00 +39°C° 0 mm 3 mps 713 mmHg 15%
    14:00 +39°C° 0 mm 3 mps 713 mmHg 14%
    15:00 +39°C° 0 mm 3 mps 712 mmHg 14%
    16:00 +39°C° 0 mm 3 mps 712 mmHg 14%
    17:00 +39°C° 0 mm 3 mps 711 mmHg 15%
    18:00 +37°C° 0 mm 2 mps 711 mmHg 17%
    19:00 +36°C° 0 mm 2 mps 711 mmHg 19%
    20:00 +33°C° 0 mm 1 mps 711 mmHg 22%
    21:00 +32°C° 0 mm 2 mps 712 mmHg 22%
    22:00 +32°C° 0 mm 2 mps 712 mmHg 23%
    23:00 +31°C° 0 mm 3 mps 712 mmHg 23%

    Day after tomorrow, 22 May, Wednesday

    Time Temperature Precipitation Wind Pressure Humidity
    00:00 +31°C° 0 mm 3 mps 712 mmHg 25%
    01:00 +30°C° 0 mm 2 mps 711 mmHg 27%
    02:00 +29°C° 0 mm 2 mps 711 mmHg 28%
    03:00 +29°C° 0 mm 3 mps 711 mmHg 28%
    04:00 +29°C° 0 mm 3 mps 711 mmHg 27%
    05:00 +28°C° 0 mm 3 mps 711 mmHg 26%
    06:00 +30°C° 0 mm 3 mps 711 mmHg 25%
    07:00 +31°C° 0 mm 3 mps 711 mmHg 23%
    08:00 +32°C° 0 mm 2 mps 712 mmHg 22%
    09:00 +34°C° 0 mm 2 mps 712 mmHg 21%
    10:00 +35°C° 0 mm 2 mps 712 mmHg 19%
    11:00 +36°C° 0 mm 2 mps 712 mmHg 18%
    12:00 +36°C° 0 mm 3 mps 712 mmHg 19%
    13:00 +35°C° 0 mm 3 mps 711 mmHg 20%
    14:00 +35°C° 0 mm 4 mps 711 mmHg 21%
    15:00 +34°C° 0 mm 4 mps 711 mmHg 23%
    16:00 +34°C° 0 mm 4 mps 711 mmHg 26%
    17:00 +33°C° 0 mm 5 mps 711 mmHg 28%
    18:00 +32°C° 0.2 mm 4 mps 711 mmHg 31%
    19:00 +30°C° 0.2 mm 3 mps 711 mmHg 33%
    20:00 +29°C° 0.2 mm 2 mps 711 mmHg 36%
    21:00 +29°C° 0.1 mm 2 mps 711 mmHg 36%
    22:00 +29°C° 0.1 mm 2 mps 711 mmHg 37%
    23:00 +28°C° 0.1 mm 3 mps 712 mmHg 37%

    23 May, Thursday

    Time Temperature Precipitation Wind Pressure Humidity
    00:00 +28°C° 0.1 mm 3 mps 711 mmHg 38%
    01:00 +27°C° 0.1 mm 3 mps 711 mmHg 39%
    02:00 +27°C° 0.1 mm 3 mps 711 mmHg 40%
    03:00 +27°C° 0 mm 3 mps 711 mmHg 38%
    04:00 +27°C° 0 mm 3 mps 710 mmHg 37%
    05:00 +26°C° 0 mm 2 mps 710 mmHg 36%
    06:00 +28°C° 0 mm 2 mps 711 mmHg 34%
    07:00 +29°C° 0 mm 2 mps 711 mmHg 32%
    08:00 +30°C° 0 mm 2 mps 712 mmHg 30%
    09:00 +32°C° 0 mm 2 mps 712 mmHg 28%
    10:00 +34°C° 0 mm 2 mps 712 mmHg 25%
    11:00 +35°C° 0 mm 3 mps 713 mmHg 23%
    12:00 +35°C° 0 mm 3 mps 713 mmHg 23%
    13:00 +36°C° 0 mm 3 mps 712 mmHg 23%
    14:00 +36°C° 0 mm 3 mps 712 mmHg 24%
    15:00 +36°C° 0 mm 3 mps 712 mmHg 24%
    16:00 +36°C° 0 mm 2 mps 712 mmHg 24%
    17:00 +36°C° 0 mm 2 mps 712 mmHg 25%
    18:00 +34°C° 0.2 mm 2 mps 712 mmHg 29%
    19:00 +31°C° 0.2 mm 2 mps 712 mmHg 34%
    20:00 +30°C° 0.2 mm 2 mps 712 mmHg 39%
    21:00 +29°C° 0.1 mm 3 mps 712 mmHg 40%
    22:00 +29°C° 0.1 mm 3 mps 712 mmHg 41%
    23:00 +28°C° 0.1 mm 4 mps 712 mmHg 42%

    24 May, Friday

    Time Temperature Precipitation Wind Pressure Humidity
    00:00 +28°C° 0.4 mm 3 mps 712 mmHg 45%
    01:00 +27°C° 0.4 mm 3 mps 712 mmHg 48%
    02:00 +26°C° 0.4 mm 3 mps 711 mmHg 51%
    03:00 +26°C° 0.1 mm 3 mps 711 mmHg 50%
    04:00 +26°C° 0.1 mm 3 mps 712 mmHg 48%
    05:00 +26°C° 0.1 mm 4 mps 712 mmHg 47%
    06:00 +27°C° 0.1 mm 3 mps 712 mmHg 44%
    07:00 +28°C° 0.1 mm 2 mps 713 mmHg 42%
    08:00 +29°C° 0.1 mm 2 mps 713 mmHg 40%
    09:00 +30°C° 0.1 mm 2 mps 713 mmHg 37%
    10:00 +31°C° 0.1 mm 2 mps 713 mmHg 33%
    11:00 +32°C° 0.1 mm 2 mps 714 mmHg 30%
    12:00 +34°C° 0 mm 2 mps 713 mmHg 28%
    13:00 +34°C° 0 mm 1 mps 713 mmHg 26%
    14:00 +35°C° 0 mm 1 mps 712 mmHg 23%
    15:00 +36°C° 0 mm 2 mps 712 mmHg 23%
    16:00 +36°C° 0 mm 2 mps 712 mmHg 23%
    17:00 +37°C° 0 mm 2 mps 711 mmHg 22%
    18:00 +35°C° 0 mm 2 mps 711 mmHg 25%
    19:00 +34°C° 0 mm 2 mps 712 mmHg 28%
    20:00 +32°C° 0 mm 2 mps 712 mmHg 31%
    21:00 +31°C° 0 mm 2 mps 712 mmHg 33%
    22:00 +30°C° 0 mm 3 mps 712 mmHg 35%
    23:00 +29°C° 0 mm 3 mps 712 mmHg 36%

    25 May, Saturday

    Time Temperature Precipitation Wind Pressure Humidity
    00:00 +29°C° 0 mm 3 mps 711 mmHg 37%
    01:00 +28°C° 0 mm 3 mps 711 mmHg 37%
    02:00 +28°C° 0 mm 3 mps 711 mmHg 37%
    03:00 +27°C° 0 mm 3 mps 710 mmHg 37%
    04:00 +27°C° 0 mm 3 mps 710 mmHg 37%
    05:00 +26°C° 0 mm 3 mps 710 mmHg 37%
    06:00 +28°C° 0 mm 2 mps 710 mmHg 34%
    07:00 +29°C° 0 mm 2 mps 711 mmHg 30%
    08:00 +31°C° 0 mm 2 mps 711 mmHg 27%
    09:00 +32°C° 0 mm 2 mps 711 mmHg 25%
    10:00 +35°C° 0 mm 3 mps 711 mmHg 23%
    11:00 +36°C° 0 mm 3 mps 711 mmHg 20%
    12:00 +37°C° 0 mm 3 mps 710 mmHg 20%
    13:00 +37°C° 0 mm 3 mps 710 mmHg 19%
    14:00 +38°C° 0 mm 3 mps 709 mmHg 18%
    15:00 +38°C° 0 mm 3 mps 709 mmHg 18%
    16:00 +38°C° 0 mm 3 mps 709 mmHg 17%
    17:00 +38°C° 0 mm 3 mps 708 mmHg 17%
    18:00 +36°C° 0 mm 2 mps 709 mmHg 19%
    19:00 +34°C° 0 mm 1 mps 709 mmHg 21%
    20:00 +32°C° 0 mm 1 mps 709 mmHg 24%
    21:00 +32°C° 0 mm 1 mps 709 mmHg 25%
    22:00 +31°C° 0 mm 2 mps 709 mmHg 26%
    23:00 +30°C° 0 mm 3 mps 709 mmHg 27%
    Show more